When you browse on this site, cookies collect data to enhance your experience and personalize the content and advertising you see.
Visit our Privacy Policy to learn more. By continuing to use the site, you agree to this use of cookies and data.
  • In Schweiz
  • Länderverzeichnis
  • Für 7 Tage
  • Wassertemperatur
  • Wetterkarte
  • Widgets
  • user-avatar
    Anmelden

    Stündliche Wetter Abowian

    Heute, 5 Juni, Freitag

    Zeit Temperatur Niederschläge Wind Luftdruck Luftfeuchtigkeit
    00:00 +17°C° 0 mm 2 m/S 672 mmHg 44%
    01:00 +17°C° 0 mm 2 m/S 672 mmHg 45%
    02:00 +17°C° 0 mm 2 m/S 672 mmHg 46%
    03:00 +16°C° 0 mm 2 m/S 671 mmHg 48%
    04:00 +17°C° 0 mm 2 m/S 672 mmHg 49%
    05:00 +19°C° 0 mm 1 m/S 672 mmHg 50%
    06:00 +20°C° 0 mm 1 m/S 673 mmHg 52%
    07:00 +20°C° 0 mm 2 m/S 673 mmHg 46%
    08:00 +23°C° 0 mm 2 m/S 673 mmHg 40%
    09:00 +25°C° 0 mm 3 m/S 673 mmHg 33%
    10:00 +26°C° 0 mm 3 m/S 673 mmHg 31%
    11:00 +26°C° 0 mm 4 m/S 674 mmHg 29%
    12:00 +27°C° 0 mm 5 m/S 674 mmHg 27%
    13:00 +27°C° 0 mm 4 m/S 674 mmHg 27%
    14:00 +27°C° 0 mm 4 m/S 673 mmHg 27%
    15:00 +27°C° 0 mm 3 m/S 673 mmHg 27%
    16:00 +27°C° 0 mm 3 m/S 673 mmHg 29%
    17:00 +26°C° 0 mm 3 m/S 674 mmHg 31%
    18:00 +26°C° 0 mm 2 m/S 674 mmHg 33%
    19:00 +24°C° 0 mm 2 m/S 674 mmHg 36%
    20:00 +20°C° 0 mm 2 m/S 674 mmHg 39%
    21:00 +18°C° 0 mm 2 m/S 674 mmHg 42%
    22:00 +18°C° 0 mm 2 m/S 674 mmHg 44%
    23:00 +17°C° 0 mm 2 m/S 674 mmHg 45%

    Morgen, 6 Juni, Samstag

    Zeit Temperatur Niederschläge Wind Luftdruck Luftfeuchtigkeit
    00:00 +16°C° 0 mm 2 m/S 674 mmHg 47%
    01:00 +16°C° 0 mm 2 m/S 674 mmHg 48%
    02:00 +15°C° 0 mm 2 m/S 674 mmHg 49%
    03:00 +15°C° 0 mm 2 m/S 674 mmHg 49%
    04:00 +16°C° 0 mm 2 m/S 674 mmHg 50%
    05:00 +18°C° 0 mm 1 m/S 675 mmHg 51%
    06:00 +18°C° 0 mm 1 m/S 675 mmHg 51%
    07:00 +20°C° 0 mm 1 m/S 675 mmHg 47%
    08:00 +22°C° 0 mm 1 m/S 676 mmHg 42%
    09:00 +24°C° 0 mm 2 m/S 676 mmHg 38%
    10:00 +25°C° 0.3 mm 2 m/S 676 mmHg 35%
    11:00 +26°C° 0.3 mm 2 m/S 676 mmHg 32%
    12:00 +27°C° 0.3 mm 2 m/S 676 mmHg 30%
    13:00 +27°C° 0.2 mm 1 m/S 676 mmHg 28%
    14:00 +28°C° 0.2 mm 1 m/S 675 mmHg 27%
    15:00 +28°C° 0.2 mm 1 m/S 675 mmHg 26%
    16:00 +27°C° 0 mm 2 m/S 675 mmHg 30%
    17:00 +27°C° 0 mm 3 m/S 675 mmHg 35%
    18:00 +26°C° 0 mm 4 m/S 675 mmHg 40%
    19:00 +23°C° 0 mm 4 m/S 675 mmHg 43%
    20:00 +21°C° 0 mm 4 m/S 675 mmHg 45%
    21:00 +19°C° 0 mm 4 m/S 675 mmHg 48%
    22:00 +18°C° 0 mm 3 m/S 675 mmHg 47%
    23:00 +17°C° 0 mm 3 m/S 675 mmHg 46%

    übermorgen, 7 Juni, Sonntag

    Zeit Temperatur Niederschläge Wind Luftdruck Luftfeuchtigkeit
    00:00 +16°C° 0 mm 2 m/S 674 mmHg 45%
    01:00 +16°C° 0 mm 2 m/S 674 mmHg 44%
    02:00 +15°C° 0 mm 2 m/S 674 mmHg 43%
    03:00 +15°C° 0 mm 2 m/S 674 mmHg 42%
    04:00 +16°C° 0 mm 1 m/S 674 mmHg 43%
    05:00 +18°C° 0 mm 1 m/S 674 mmHg 44%
    06:00 +18°C° 0 mm 1 m/S 675 mmHg 46%
    07:00 +20°C° 0 mm 1 m/S 675 mmHg 42%
    08:00 +22°C° 0 mm 1 m/S 675 mmHg 38%
    09:00 +24°C° 0 mm 1 m/S 675 mmHg 34%
    10:00 +25°C° 0 mm 2 m/S 675 mmHg 32%
    11:00 +26°C° 0 mm 2 m/S 675 mmHg 30%
    12:00 +28°C° 0 mm 2 m/S 675 mmHg 29%
    13:00 +28°C° 0 mm 2 m/S 675 mmHg 28%
    14:00 +29°C° 0 mm 2 m/S 674 mmHg 27%
    15:00 +29°C° 0 mm 2 m/S 674 mmHg 26%
    16:00 +29°C° 0 mm 1 m/S 674 mmHg 29%
    17:00 +28°C° 0 mm 1 m/S 674 mmHg 32%
    18:00 +28°C° 0 mm 1 m/S 674 mmHg 35%
    19:00 +26°C° 0 mm 1 m/S 673 mmHg 40%
    20:00 +23°C° 0 mm 2 m/S 673 mmHg 44%
    21:00 +20°C° 0 mm 2 m/S 673 mmHg 48%
    22:00 +19°C° 0 mm 2 m/S 673 mmHg 49%
    23:00 +19°C° 0 mm 2 m/S 673 mmHg 51%

    8 Juni, Montag

    Zeit Temperatur Niederschläge Wind Luftdruck Luftfeuchtigkeit
    00:00 +18°C° 0 mm 2 m/S 673 mmHg 52%
    01:00 +18°C° 0 mm 2 m/S 672 mmHg 54%
    02:00 +17°C° 0 mm 2 m/S 672 mmHg 56%
    03:00 +18°C° 0 mm 1 m/S 672 mmHg 59%
    04:00 +19°C° 0 mm 1 m/S 672 mmHg 60%
    05:00 +20°C° 0 mm 1 m/S 672 mmHg 61%
    06:00 +20°C° 0 mm 1 m/S 673 mmHg 62%
    07:00 +22°C° 0 mm 1 m/S 673 mmHg 56%
    08:00 +24°C° 0 mm 2 m/S 673 mmHg 50%
    09:00 +26°C° 0 mm 2 m/S 673 mmHg 44%
    10:00 +27°C° 0 mm 2 m/S 673 mmHg 40%
    11:00 +28°C° 0 mm 2 m/S 673 mmHg 36%
    12:00 +29°C° 0 mm 2 m/S 673 mmHg 32%
    13:00 +30°C° 0 mm 2 m/S 673 mmHg 29%
    14:00 +31°C° 0 mm 2 m/S 672 mmHg 26%
    15:00 +31°C° 0 mm 2 m/S 672 mmHg 23%
    16:00 +31°C° 0 mm 2 m/S 672 mmHg 27%
    17:00 +30°C° 0 mm 2 m/S 672 mmHg 30%
    18:00 +29°C° 0 mm 2 m/S 672 mmHg 34%
    19:00 +27°C° 0 mm 2 m/S 672 mmHg 39%
    20:00 +25°C° 0 mm 3 m/S 671 mmHg 45%
    21:00 +21°C° 0 mm 3 m/S 671 mmHg 50%
    22:00 +21°C° 0 mm 3 m/S 671 mmHg 51%
    23:00 +20°C° 0 mm 2 m/S 671 mmHg 51%

    9 Juni, Dienstag

    Zeit Temperatur Niederschläge Wind Luftdruck Luftfeuchtigkeit
    00:00 +19°C° 0 mm 2 m/S 671 mmHg 52%
    01:00 +19°C° 0 mm 2 m/S 671 mmHg 54%
    02:00 +18°C° 0 mm 2 m/S 671 mmHg 56%
    03:00 +18°C° 0 mm 2 m/S 670 mmHg 58%
    04:00 +19°C° 0 mm 2 m/S 671 mmHg 58%
    05:00 +20°C° 0 mm 1 m/S 671 mmHg 57%
    06:00 +21°C° 0 mm 1 m/S 672 mmHg 57%
    07:00 +23°C° 0 mm 1 m/S 672 mmHg 51%
    08:00 +25°C° 0 mm 1 m/S 672 mmHg 46%
    09:00 +27°C° 0 mm 1 m/S 672 mmHg 41%
    10:00 +28°C° 0.1 mm 1 m/S 673 mmHg 37%
    11:00 +29°C° 0.1 mm 1 m/S 673 mmHg 33%
    12:00 +31°C° 0.1 mm 2 m/S 673 mmHg 29%
    13:00 +31°C° 0.1 mm 2 m/S 673 mmHg 28%
    14:00 +32°C° 0.1 mm 2 m/S 672 mmHg 27%
    15:00 +32°C° 0.1 mm 2 m/S 672 mmHg 25%
    16:00 +31°C° 0.1 mm 2 m/S 672 mmHg 32%
    17:00 +29°C° 0.1 mm 2 m/S 672 mmHg 39%
    18:00 +28°C° 0.1 mm 2 m/S 672 mmHg 46%
    19:00 +25°C° 1 mm 2 m/S 673 mmHg 53%
    20:00 +22°C° 1 mm 3 m/S 673 mmHg 60%
    21:00 +19°C° 1 mm 4 m/S 673 mmHg 68%
    22:00 +19°C° 0.2 mm 3 m/S 673 mmHg 70%
    23:00 +18°C° 0.2 mm 2 m/S 673 mmHg 71%

    10 Juni, Mittwoch

    Zeit Temperatur Niederschläge Wind Luftdruck Luftfeuchtigkeit
    00:00 +19°C° 0.2 mm 1 m/S 672 mmHg 73%
    01:00 +18°C° 0 mm 1 m/S 672 mmHg 73%
    02:00 +18°C° 0 mm 1 m/S 672 mmHg 73%
    03:00 +18°C° 0 mm 1 m/S 672 mmHg 73%
    04:00 +19°C° 0 mm 1 m/S 672 mmHg 71%
    05:00 +19°C° 0 mm 1 m/S 672 mmHg 69%
    06:00 +20°C° 0 mm 1 m/S 673 mmHg 67%
    07:00 +22°C° 0 mm 1 m/S 673 mmHg 62%
    08:00 +23°C° 0 mm 1 m/S 673 mmHg 57%
    09:00 +25°C° 0 mm 2 m/S 673 mmHg 52%
    10:00 +26°C° 0.1 mm 1 m/S 673 mmHg 48%
    11:00 +27°C° 0.1 mm 1 m/S 674 mmHg 44%
    12:00 +29°C° 0.1 mm 1 m/S 674 mmHg 40%
    13:00 +29°C° 0.1 mm 1 m/S 674 mmHg 37%
    14:00 +30°C° 0.1 mm 1 m/S 673 mmHg 34%
    15:00 +31°C° 0.1 mm 1 m/S 673 mmHg 31%
    16:00 +31°C° 0.2 mm 1 m/S 673 mmHg 34%
    17:00 +30°C° 0.2 mm 1 m/S 673 mmHg 38%
    18:00 +30°C° 0.2 mm 1 m/S 674 mmHg 41%
    19:00 +27°C° 0.2 mm 1 m/S 674 mmHg 46%
    20:00 +25°C° 0.2 mm 2 m/S 673 mmHg 51%
    21:00 +21°C° 0.2 mm 2 m/S 673 mmHg 56%
    22:00 +21°C° 0.1 mm 2 m/S 673 mmHg 57%
    23:00 +20°C° 0.1 mm 2 m/S 673 mmHg 58%
    Mehr zeigen